Temp
59 59 58 58 58 58 57 57 57 56 56 56 56 56 56 56 56 56 56 55 55 56 56 57 57 57 61 61 65 83 67 70 77 76 74 74 70 70 66 71 74 72 74 77 79 80 81
59 58 58 57 57 57 57 56 56 56 56 55 55 55 55 56 56 55 55 55 55 55 56 57 57 57 59 52 79 82 79 77 77 77 74 75 72 76 71 70 70 75 75 75 78 78 77
58 58 57 57 57 57 56 56 56 56 55 55 55 55 55 55 55 55 55 54 54 54 55 56 57 61 57 60 80 82 80 77 78 76 72 77 78 73 73 67 75 73 68 73 74 75 75
58 57 57 56 56 56 55 55 55 55 55 55 55 55 54 54 54 54 54 54 54 55 55 57 57 63 52 75 80 75 77 74 77 77 74 77 78 72 70 74 71 66 66 59 71 73 75
57 57 57 56 55 55 55 55 55 54 54 55 54 54 54 54 54 54 53 54 54 55 57 58 60 59 53 71 67 74 74 68 73 74 73 75 71 65 67 60 59 62 55 58 63 75 73
57 57 56 55 55 55 55 55 54 54 54 54 54 54 54 54 53 53 53 53 59 59 62 68 66 53 60 61 71 72 76 72 66 67 65 64 63 58 59 58 47 55 55 60 61 71 73
57 56 55 55 55 55 55 55 54 54 54 54 54 54 53 53 53 53 55 68 61 60 60 52 56 57 61 68 70 66 71 68 67 62 54 59 53 50 57 60 62 57 57 54 62 70 67
56 56 55 55 55 55 55 54 54 54 54 54 54 53 53 53 53 53 60 57 53 53 40 55 57 58 62 64 55 62 69 55 57 51 59 55 49 60 64 64 59 56 42 48 60 66 66
55 55 55 55 54 54 54 54 53 53 53 53 53 53 53 52 52 56 60 58 65 61 42 49 59 58 59 61 55 58 63 59 54 52 53 51 57 63 61 60 55 52 46 50 53 59 62
54 54 54 54 54 53 53 53 53 53 53 53 53 53 52 52 52 60 59 63 63 59 34 48 55 56 59 60 52 66 68 59 55 51 55 56 63 60 58 56 59 48 58 54 53 49 43
53 54 53 53 53 52 52 52 52 52 52 52 52 52 52 51 56 57 59 63 61 52 24 53 54 65 61 55 58 59 66 60 51 53 52 52 57 57 55 56 59 54 60 55 53 53 53
53 54 53 53 52 52 52 52 52 52 52 52 52 52 52 61 61 61 62 60 56 31 26 45 52 50 51 55 55 59 58 63 62 55 57 55 65 62 59 60 59 60 55 56 56 53 42
53 53 53 52 52 52 52 52 51 52 52 52 52 52 53 61 54 62 60 56 38 32 49 42 43 49 48 39 43 51 50 49 48 41 41 49 48 62 61 54 56 54 48 37 34 37 39
52 52 52 52 52 52 52 51 51 51 51 52 51 50 53 62 62 59 57 46 31 40 40 48 46 46 38 39 42 39 48 47 54 54 46 38 37 52 57 53 48 51 49 38 31 34 41
52 52 52 52 52 52 51 51 51 51 51 51 50 61 61 59 59 59 51 35 35 40 45 41 43 38 35 38 36 36 48 50 54 57 37 40 41 53 57 59 57 50 45 54 41 47 44
52 52 52 52 51 51 51 51 51 51 51 50 57 59 58 58 59 54 44 37 41 47 46 45 31 35 26 32 33 38 49 55 54 57 54 53 37 52 55 60 59 54 57 43 47 33 35
51 52 52 51 51 51 51 50 50 50 51 50 56 53 56 59 57 49 35 41 44 49 48 41 34 31 32 30 32 37 41 56 57 58 61 55 47 46 53 49 49 52 48 51 51 46 37
51 51 51 50 51 51 51 50 50 50 50 48 55 44 57 59 42 45 41 44 45 46 49 45 43 35 30 31 31 32 35 41 57 58 52 56 48 41 46 58 55 57 51 51 41 40 45
51 51 51 50 50 50 50 50 50 50 49 57 49 52 58 54 35 39 46 45 47 45 44 43 36 37 35 32 30 33 34 45 50 52 50 53 47 39 39 49 53 51 53 56 52 48 42
51 50 50 51 50 50 50 50 50 50 50 52 51 38 52 54 47 41 39 40 39 48 44 41 38 41 38 35 39 32 33 43 50 50 47 50 49 46 38 43 51 46 52 53 51 44 45
50 50 51 50 50 50 50 50 50 50 50 51 48 39 46 38 43 42 41 39 35 36 46 48 44 45 41 33 34 32 38 39 46 48 44 46 38 39 49 54 53 50 48 50 47 50 43
50 50 50 50 50 50 50 50 49 50 50 48 35 46 50 45 45 43 41 38 37 42 43 41 39 45 46 39 37 33 39 39 35 43 40 46 41 45 44 51 51 47 50 50 50 50 50
49 49 50 50 50 50 50 50 50 49 49 49 52 53 46 44 44 43 43 41 41 45 46 48 46 45 44 44 47 47 49 48 46 43 42 44 44 41 37 47 48 39 47 50 52 53 52
49 49 49 49 49 50 50 49 49 49 49 54 54 51 39 38 46 43 43 44 43 45 42 48 50 44 49 55 56 55 51 51 52 50 50 44 45 45 38 42 32 46 56 55 51 50 51
49 49 49 50 49 49 49 49 49 49 49 48 54 48 42 34 47 44 43 44 47 48 47 47 49 52 54 52 46 44 43 43 48 49 49 50 46 41 38 39 43 46 48 48 47 41 49
49 49 49 49 49 49 48 48 49 49 49 48 49 52 46 36 43 45 43 46 43 44 45 47 54 56 53 49 44 36 34 40 39 44 53 51 50 45 41 35 29 36 47 55 55 38 45
49 49 49 49 48 48 48 48 49 49 49 48 47 47 45 38 49 47 42 42 47 45 44 47 46 47 52 42 37 37 36 45 36 37 39 41 41 37 39 37 37 36 46 52 39 31 42
48 48 48 48 48 48 47 47 49 49 49 49 43 47 42 40 47 49 50 45 46 47 39 45 44 44 41 37 38 36 35 40 39 43 39 38 34 36 39 36 29 37 46 36 32 36 38
47 48 48 48 48 48 47 48 48 48 48 49 42 46 45 39 45 51 52 53 52 51 47 48 41 43 43 38 40 35 35 38 40 31 47 34 37 33 32 29 34 37 35 36 37 34 35
MSLP
1021.37 1021.70 1022.05 1022.40 1022.51 1022.54 1022.44 1022.25 1021.97 1021.70 1021.57 1021.53 1021.56 1021.55 1021.38 1020.95 1020.55 1020.04 1019.51 1018.95 1018.37 1017.78 1017.71 1017.16 1016.76 1016.43 1015.71 1012.90 1009.40 1008.39 1009.17 1009.31 1009.11 1008.95 1008.06 1007.14 1006.22 1005.44 1003.90 1003.43 1002.95 1001.27 1001.06 1001.00 1000.96 1000.50 1000.08
1021.31 1021.52 1021.84 1022.16 1022.48 1022.54 1022.59 1022.46 1022.09 1021.77 1021.48 1021.67 1021.54 1021.62 1021.53 1020.93 1020.31 1019.77 1019.16 1018.06 1017.39 1017.31 1017.07 1016.63 1016.39 1016.20 1014.86 1011.22 1007.98 1007.87 1008.07 1008.33 1008.35 1007.54 1007.13 1006.84 1005.60 1004.70 1003.80 1002.92 1002.07 1001.24 1000.97 1000.51 1000.44 1000.29 1000.48
1020.98 1021.14 1021.69 1022.02 1022.29 1022.56 1022.41 1022.39 1021.94 1021.79 1021.77 1021.85 1021.64 1021.66 1021.11 1020.81 1019.88 1019.10 1018.46 1017.74 1017.32 1017.03 1016.72 1016.08 1015.81 1015.30 1013.25 1009.13 1008.00 1007.71 1007.64 1007.54 1007.56 1007.32 1006.42 1005.81 1005.47 1004.64 1003.66 1002.70 1002.00 1001.73 1000.95 1000.07 999.75 1000.08 999.83
1020.83 1020.97 1021.32 1021.81 1022.26 1022.49 1022.34 1022.33 1021.97 1021.88 1021.89 1021.88 1021.83 1021.60 1020.83 1020.15 1019.45 1019.13 1018.56 1017.70 1016.95 1016.36 1015.79 1015.25 1015.24 1014.24 1011.34 1008.39 1007.94 1007.72 1007.43 1007.05 1007.05 1007.05 1006.87 1006.12 1005.23 1004.61 1003.70 1002.83 1002.12 1001.48 1001.14 999.64 998.95 999.61 999.48
1020.67 1020.83 1021.11 1021.53 1021.93 1022.23 1022.22 1022.20 1022.12 1022.02 1022.06 1021.99 1021.50 1020.90 1020.56 1020.02 1019.52 1019.12 1018.14 1017.03 1015.95 1015.25 1014.83 1014.62 1014.31 1013.02 1009.73 1007.97 1007.60 1006.91 1006.97 1006.54 1006.10 1006.02 1006.28 1006.49 1006.08 1004.95 1004.10 1003.04 1001.72 1000.95 999.57 998.94 998.94 998.47 998.55
1020.44 1020.70 1021.04 1021.37 1021.56 1021.85 1021.99 1021.91 1022.07 1022.11 1022.05 1021.76 1021.12 1021.11 1020.37 1019.94 1019.56 1018.83 1017.72 1016.17 1014.02 1014.22 1013.87 1012.81 1012.43 1012.34 1008.83 1006.98 1006.18 1006.53 1006.24 1006.33 1005.96 1005.52 1005.33 1005.43 1005.11 1003.96 1003.23 1001.86 999.85 999.32 999.68 998.86 997.66 997.19 997.12
1019.96 1020.58 1020.84 1021.26 1021.19 1021.53 1021.80 1021.73 1021.85 1021.88 1021.96 1021.47 1021.25 1020.76 1020.13 1019.96 1019.71 1018.85 1017.39 1013.80 1013.60 1013.02 1012.95 1012.68 1011.22 1009.33 1007.54 1007.20 1007.27 1006.32 1006.27 1005.96 1005.70 1005.01 1003.89 1004.18 1003.75 1001.25 1000.13 1000.45 1000.19 1000.34 999.69 999.38 998.36 997.51 997.03
1020.06 1020.38 1020.65 1021.00 1021.12 1021.28 1021.59 1021.63 1021.56 1021.66 1021.62 1021.47 1020.98 1020.64 1020.52 1020.06 1019.55 1018.77 1017.16 1015.84 1016.73 1017.21 1013.61 1011.93 1009.28 1008.36 1007.86 1007.58 1006.44 1005.41 1005.73 1006.00 1004.68 1003.86 1002.96 1002.43 1001.18 1000.24 1000.47 1000.02 1000.43 1000.67 1002.43 1001.75 1000.01 998.96 998.25
1020.17 1020.39 1020.56 1020.80 1021.18 1021.27 1021.42 1021.26 1021.41 1021.43 1021.46 1021.13 1020.80 1020.61 1020.62 1020.04 1019.29 1018.40 1016.82 1016.67 1016.72 1016.84 1014.97 1009.33 1007.22 1006.64 1006.45 1006.84 1005.26 1004.23 1004.35 1004.22 1003.71 1002.75 1002.04 1000.52 999.59 1000.27 999.88 999.59 999.92 1001.32 1002.25 1001.63 1000.61 1000.28 999.39
1020.09 1020.45 1020.68 1020.93 1021.07 1021.11 1021.42 1021.30 1021.08 1021.32 1021.20 1020.86 1020.93 1020.81 1020.59 1019.63 1019.05 1017.67 1016.38 1017.04 1017.06 1017.01 1014.49 1007.16 1005.61 1006.37 1006.43 1006.08 1004.45 1003.57 1002.62 1003.57 1002.93 1001.92 1000.63 999.36 999.01 998.64 999.02 999.07 999.61 1000.16 1001.39 1001.88 1001.74 1001.60 1000.26
1020.10 1020.42 1020.72 1020.95 1021.18 1021.14 1021.15 1021.15 1021.42 1021.18 1020.96 1020.83 1020.97 1020.85 1020.46 1020.06 1018.90 1017.32 1017.37 1017.23 1017.13 1017.12 1012.58 1007.32 1006.13 1006.43 1006.36 1005.51 1003.88 1002.66 1002.91 1002.59 1002.01 1001.19 1001.08 998.91 998.30 998.26 998.38 998.89 999.76 999.76 1000.73 1001.67 1001.97 1000.78 999.53
1019.80 1020.37 1020.60 1020.80 1020.82 1021.22 1021.11 1021.14 1021.27 1020.94 1020.84 1020.85 1020.85 1020.59 1020.21 1018.26 1017.87 1017.66 1017.46 1017.14 1016.50 1015.46 1010.27 1007.82 1007.39 1006.52 1005.70 1004.93 1003.38 1002.28 1001.54 1001.86 1001.76 1000.99 999.61 998.90 998.45 998.29 998.59 999.43 1000.25 1000.94 1001.32 1001.17 1001.23 1000.59 999.12
1019.54 1020.16 1020.49 1020.57 1020.61 1020.84 1021.09 1021.00 1020.88 1020.80 1020.91 1020.82 1020.44 1020.34 1019.76 1018.87 1017.88 1017.77 1017.53 1015.87 1014.36 1011.87 1010.24 1008.81 1008.38 1007.86 1006.79 1006.21 1004.35 1001.95 1001.01 1000.90 1000.37 1000.30 999.63 999.25 999.36 998.36 999.16 999.78 1000.86 1001.19 1001.34 1001.38 1001.14 999.87 998.07
1019.44 1019.90 1020.17 1020.37 1020.33 1020.87 1020.95 1020.83 1020.67 1020.76 1020.86 1020.53 1020.24 1020.06 1019.27 1018.41 1018.14 1017.96 1016.87 1014.89 1012.96 1011.84 1011.11 1010.49 1009.66 1008.59 1007.47 1007.33 1004.79 1003.71 1000.97 1000.06 1000.03 998.92 998.99 999.39 999.43 998.85 999.47 999.66 1000.22 1000.14 1000.50 999.94 999.46 998.72 997.59
1019.19 1019.72 1019.90 1020.09 1020.32 1020.64 1020.58 1020.63 1020.75 1020.75 1020.70 1020.43 1020.02 1018.40 1018.03 1018.36 1018.37 1017.83 1015.91 1013.92 1013.37 1012.78 1012.14 1011.32 1010.44 1009.00 1008.50 1008.41 1007.59 1004.57 1000.94 999.44 999.10 998.38 999.71 999.23 998.95 999.96 999.62 999.59 999.86 999.66 999.58 999.66 1000.23 998.68 997.09
1018.90 1019.42 1019.70 1019.99 1020.26 1020.61 1020.39 1020.46 1020.71 1020.63 1020.37 1020.33 1019.04 1017.85 1017.55 1018.54 1018.52 1017.55 1015.64 1014.27 1013.66 1013.44 1013.01 1012.35 1012.14 1011.28 1010.27 1008.82 1007.48 1004.82 1000.72 999.32 998.73 998.60 999.73 998.04 999.45 999.64 999.56 999.26 999.66 999.81 999.44 999.69 999.25 998.50 997.32
1018.73 1019.25 1019.55 1019.84 1020.08 1020.31 1020.30 1020.50 1020.71 1020.64 1020.36 1020.16 1018.42 1017.08 1017.85 1018.46 1018.28 1016.85 1015.66 1014.22 1013.89 1013.72 1013.38 1012.97 1012.76 1012.45 1011.69 1010.18 1008.65 1005.79 1003.01 999.67 999.42 998.79 998.89 998.71 999.50 999.54 999.68 999.14 998.81 998.92 999.00 999.17 999.22 999.26 998.51
1018.68 1019.02 1019.45 1019.74 1019.93 1020.04 1020.05 1020.44 1020.58 1020.46 1020.26 1019.92 1018.18 1017.03 1017.90 1017.96 1017.31 1016.26 1015.07 1014.82 1014.23 1013.55 1013.49 1013.10 1013.28 1013.31 1012.62 1011.04 1009.35 1007.26 1005.05 1003.32 1001.12 999.85 999.40 999.30 999.47 999.32 999.13 998.81 999.73 998.69 998.94 999.35 999.38 999.42 999.04
1018.63 1018.77 1019.03 1019.42 1019.77 1019.94 1020.14 1020.36 1020.70 1020.55 1020.09 1018.70 1017.76 1016.95 1017.79 1017.88 1017.01 1016.07 1015.24 1014.54 1014.25 1013.72 1013.62 1013.31 1013.58 1013.42 1012.58 1011.58 1009.87 1008.24 1006.76 1005.22 1003.40 1001.81 1000.70 1000.59 999.67 999.11 999.49 999.37 999.52 998.84 999.08 998.85 999.59 999.81 999.64
1018.07 1018.64 1018.70 1019.29 1019.56 1019.77 1020.04 1020.41 1020.74 1020.33 1020.23 1019.64 1017.97 1017.33 1016.69 1017.25 1017.47 1016.69 1015.88 1015.12 1014.67 1013.90 1013.83 1014.08 1013.55 1012.77 1011.98 1011.14 1010.34 1009.28 1007.78 1006.36 1005.15 1003.79 1002.89 1002.23 1000.29 999.20 998.79 998.38 998.73 999.00 998.94 999.48 999.80 999.71 999.49
1017.75 1018.31 1018.56 1019.10 1019.36 1019.60 1020.05 1020.56 1020.48 1020.27 1020.16 1020.04 1018.49 1017.91 1017.81 1016.99 1016.60 1016.65 1016.33 1015.79 1015.15 1014.22 1013.65 1013.17 1012.43 1011.60 1011.04 1010.67 1010.23 1009.58 1008.18 1006.95 1005.98 1005.06 1004.43 1003.51 1002.11 1001.49 999.03 998.71 999.15 999.79 1000.01 1000.19 1000.32 1000.43 1000.58
1017.69 1018.00 1018.41 1018.87 1019.12 1019.57 1020.16 1020.35 1020.40 1020.32 1020.27 1019.81 1019.12 1017.51 1017.71 1017.23 1016.79 1016.25 1015.95 1015.66 1015.05 1014.17 1013.58 1012.98 1012.63 1011.58 1010.68 1010.44 1010.98 1009.83 1009.04 1008.25 1007.89 1006.80 1005.96 1004.69 1003.12 1002.29 1000.98 1000.50 1000.46 1000.70 1000.89 1000.98 1001.20 1001.55 1001.63
1017.57 1017.86 1018.35 1018.73 1019.19 1019.74 1019.89 1020.18 1020.31 1020.31 1020.41 1019.51 1019.17 1018.92 1018.55 1017.15 1016.22 1015.84 1015.40 1015.51 1014.90 1014.23 1013.56 1013.05 1012.43 1011.62 1010.49 1010.77 1010.34 1009.29 1008.77 1008.45 1007.69 1006.74 1005.79 1005.09 1003.75 1003.01 1002.24 1001.85 1001.56 1001.99 1001.91 1001.55 1001.82 1002.51 1002.70
1017.36 1017.73 1018.37 1018.65 1019.07 1019.45 1019.86 1020.07 1020.22 1020.31 1020.42 1019.52 1019.42 1019.22 1018.93 1017.23 1016.14 1015.94 1015.85 1015.52 1014.82 1014.26 1013.76 1012.97 1012.36 1012.07 1011.42 1010.59 1008.81 1007.70 1007.81 1007.27 1006.35 1006.07 1006.04 1005.10 1004.07 1003.28 1003.03 1002.65 1002.31 1003.31 1003.36 1003.22 1003.29 1004.81 1005.71
1017.17 1017.61 1018.14 1018.54 1018.94 1019.26 1019.70 1020.03 1020.21 1020.38 1020.48 1020.24 1019.97 1019.75 1019.16 1018.12 1016.24 1015.97 1015.92 1015.27 1014.61 1013.86 1013.29 1012.79 1012.50 1012.32 1011.60 1009.93 1008.27 1007.04 1006.87 1006.77 1006.16 1006.26 1005.97 1005.63 1004.61 1004.02 1003.43 1003.23 1004.55 1004.86 1005.50 1005.38 1004.84 1007.14 1007.94
1016.99 1017.43 1017.98 1018.38 1018.76 1019.15 1019.61 1019.86 1020.21 1020.36 1020.38 1020.40 1020.40 1020.37 1019.97 1018.98 1016.52 1016.66 1016.09 1015.27 1014.59 1013.95 1013.32 1012.79 1012.62 1012.17 1011.46 1009.84 1008.81 1007.64 1007.06 1006.75 1006.09 1005.90 1006.04 1005.76 1005.26 1004.84 1004.92 1005.19 1006.27 1008.01 1007.66 1007.10 1006.65 1008.42 1010.13
1016.84 1017.24 1017.73 1018.09 1018.62 1019.01 1019.44 1019.77 1020.09 1020.25 1020.33 1020.41 1020.47 1021.01 1020.61 1019.32 1017.31 1017.08 1016.45 1016.29 1015.59 1014.92 1013.97 1013.22 1013.41 1012.54 1011.91 1011.02 1009.97 1009.06 1008.40 1008.00 1007.19 1006.57 1006.56 1006.49 1006.73 1006.67 1007.05 1007.39 1009.05 1010.88 1009.87 1008.49 1008.87 1012.78 1012.56
1016.58 1017.03 1017.49 1018.02 1018.44 1018.82 1019.36 1019.72 1019.97 1020.17 1020.37 1020.35 1020.77 1020.98 1021.02 1019.88 1018.06 1017.53 1017.10 1016.74 1016.13 1015.35 1014.94 1014.53 1013.70 1013.32 1013.29 1012.27 1011.77 1011.56 1010.86 1009.89 1009.01 1008.48 1008.36 1008.37 1008.63 1008.43 1008.97 1009.85 1012.01 1013.14 1011.13 1012.29 1014.92 1014.89 1014.70
1016.36 1016.82 1017.31 1017.84 1018.13 1018.66 1019.29 1019.51 1019.82 1020.03 1020.28 1020.48 1020.61 1021.01 1021.24 1020.77 1019.07 1018.33 1017.83 1017.38 1017.08 1016.65 1016.33 1015.29 1015.31 1014.78 1014.78 1014.24 1013.97 1013.99 1012.50 1011.38 1010.18 1009.31 1009.74 1010.31 1011.28 1011.67 1012.92 1014.09 1015.33 1015.69 1015.81 1016.42 1016.31 1016.34 1016.38
Wind_Speed
13 11 10 7 6 4 4 5 6 7 9 10 12 14 15 15 17 18 20 20 21 22 23 22 20 17 13 12 22 16 12 13 16 17 18 18 18 21 30 27 27 33 27 26 24 24 25
13 12 10 8 6 4 4 4 6 7 9 11 12 13 15 16 17 19 22 23 24 26 25 23 20 13 13 23 10 10 9 9 13 13 19 22 20 18 23 28 30 25 30 27 26 24 22
13 12 11 8 6 5 4 3 6 8 9 10 11 12 14 17 20 22 25 25 26 27 26 24 18 11 16 28 15 16 16 18 17 19 20 19 22 23 17 25 26 28 26 22 23 27 28
15 13 12 8 8 5 4 4 5 6 7 9 11 13 16 19 21 23 25 26 28 27 24 19 13 14 14 15 14 17 19 21 22 21 22 19 13 22 25 17 22 20 26 26 25 22 21
14 12 11 11 8 5 3 1 3 5 6 8 11 15 17 19 20 22 25 27 29 26 16 12 12 12 17 3 11 12 10 14 17 18 23 20 16 19 19 23 19 25 22 30 26 27 26
14 13 13 11 8 6 2 2 2 4 6 10 12 15 18 20 20 23 25 30 24 13 12 14 11 8 18 12 8 6 11 11 12 15 18 24 16 20 21 20 23 25 26 24 24 25 26
17 15 13 11 9 5 3 1 2 4 7 10 12 15 17 19 22 23 21 15 8 5 12 14 24 25 32 27 21 22 22 25 20 22 17 23 22 26 33 31 25 21 19 17 15 19 11
16 15 14 12 8 6 4 3 2 4 7 10 12 15 17 19 22 21 15 12 10 9 20 21 32 32 30 26 26 25 19 23 26 26 22 22 27 32 26 28 27 14 5 20 24 11 15
14 15 14 11 8 7 4 3 3 5 7 10 12 14 16 20 22 14 11 10 11 14 12 23 18 7 1 10 17 20 9 20 26 25 29 26 27 27 27 25 23 18 20 21 16 17 21
15 13 12 11 9 7 4 3 3 4 7 10 12 14 15 20 14 10 8 13 12 9 9 11 10 6 4 11 12 19 21 18 24 28 25 25 28 23 27 22 21 23 23 22 20 14 16
16 14 13 10 8 7 5 3 3 5 8 10 12 13 15 13 10 8 13 13 10 2 9 16 6 5 17 19 24 17 9 14 25 25 20 19 22 20 21 18 18 17 15 20 20 18 17
16 15 14 11 9 6 4 3 2 5 8 10 12 13 15 6 7 12 13 13 7 7 7 19 21 28 25 28 27 19 24 14 19 28 25 22 16 17 18 16 16 16 13 11 13 14 15
15 15 14 11 9 6 4 2 2 5 8 10 12 15 12 7 7 13 11 10 9 8 23 19 30 26 30 16 27 14 12 16 19 24 16 10 15 19 10 15 10 11 12 6 9 9 12
14 14 14 11 7 6 5 2 2 5 9 11 14 14 5 4 8 9 10 13 15 21 22 24 23 31 15 18 15 20 10 15 23 24 15 9 13 13 13 18 16 20 22 8 7 11 12
16 14 12 10 7 7 5 2 2 5 9 11 17 3 2 6 8 8 10 8 11 17 21 23 29 19 13 19 16 14 16 15 21 24 9 14 4 14 14 13 17 17 16 9 6 6 3
16 16 12 10 8 6 4 3 2 5 7 9 6 2 3 6 7 7 6 9 15 15 19 19 18 11 20 26 19 19 10 15 19 16 7 4 5 15 13 13 16 17 17 8 4 3 4
14 15 13 10 10 5 5 2 2 5 8 8 5 5 6 6 5 4 6 11 15 14 15 13 15 20 23 18 12 12 11 11 1 16 10 5 10 11 10 12 13 10 13 7 7 5 4
15 13 11 10 8 6 6 3 1 5 9 9 2 2 4 5 4 3 6 13 11 13 12 9 10 11 12 16 10 9 7 16 13 13 11 8 3 13 18 17 6 18 14 13 4 8 1
16 13 11 9 9 8 6 3 1 4 8 5 3 3 4 6 3 5 9 9 13 14 13 10 5 5 13 7 8 11 7 14 21 13 2 2 6 12 8 8 14 12 10 8 4 1 5
15 14 11 10 11 8 7 5 2 3 5 6 1 0 3 1 4 8 11 8 14 10 6 6 7 10 10 8 18 9 11 14 17 16 15 13 8 10 8 11 12 8 10 7 7 4 4
13 16 12 11 10 8 7 7 2 1 3 6 3 3 4 2 1 7 6 5 11 11 6 11 6 18 17 8 13 15 19 17 13 21 12 11 5 10 1 15 11 9 9 7 6 2 4
13 13 14 11 10 9 10 5 3 0 3 4 3 3 4 5 6 6 2 6 9 14 9 12 15 20 17 15 14 23 19 12 6 11 8 11 5 11 13 13 13 10 6 3 4 3 2
12 16 12 13 11 9 7 6 5 3 6 1 1 2 3 5 3 4 3 8 12 12 6 10 16 17 14 20 22 20 14 10 9 7 9 5 4 3 9 6 13 10 8 6 10 13 12
15 15 14 13 10 8 8 8 5 5 7 2 0 2 2 4 3 6 7 9 11 10 11 13 12 13 15 23 20 6 5 6 6 6 3 9 5 4 4 6 6 10 11 7 15 16 16
15 13 13 12 12 10 9 7 6 6 6 4 1 2 2 4 5 2 8 8 11 6 8 11 12 14 14 16 8 3 5 4 7 9 5 6 6 3 1 7 14 8 10 9 8 13 16
13 15 15 12 12 10 7 7 9 7 4 4 3 1 3 3 3 4 8 5 8 9 7 5 12 11 12 8 6 4 5 7 5 4 6 7 5 4 0 4 4 7 17 14 11 5 16
15 14 14 14 11 10 9 11 9 7 4 5 2 3 4 3 7 3 7 9 7 8 7 7 13 8 11 7 5 5 4 6 5 6 6 5 5 6 2 2 8 12 21 18 6 7 13
16 14 13 13 11 11 8 11 9 9 6 5 2 6 3 4 9 8 8 8 9 6 7 11 8 6 6 6 6 5 5 6 5 5 6 8 6 5 4 2 5 20 8 8 6 8 10
20 15 14 13 11 10 11 10 10 9 7 4 2 5 3 4 7 11 13 15 14 13 8 5 3 5 5 4 6 4 4 3 7 1 9 3 6 4 6 4 4 8 9 7 6 7 8
Wind_Direction
157 150 145 141 127 107 102 89 63 41 27 17 3 353 344 340 336 332 327 325 321 317 315 316 313 310 292 257 255 263 178 234 255 257 249 245 237 232 238 234 243 237 240 243 251 255 259
161 154 152 143 133 119 94 61 38 32 27 7 356 348 340 338 334 331 327 330 326 317 315 312 304 291 252 266 273 273 258 248 255 265 238 245 253 242 245 241 244 242 242 245 241 250 239
164 171 159 152 151 142 110 56 40 32 15 356 351 339 338 333 338 337 332 326 312 303 307 304 293 259 264 253 295 291 278 258 266 267 259 243 245 249 250 248 238 251 259 248 244 236 248
155 146 144 154 152 140 99 47 51 26 5 352 342 338 342 342 340 331 323 312 299 296 299 288 274 248 260 293 295 274 271 266 264 254 257 263 265 253 249 262 239 238 240 246 230 232 233
161 156 157 155 147 135 113 75 45 19 352 339 346 348 345 341 336 325 317 303 290 289 280 269 236 222 267 305 245 266 231 261 258 253 233 243 235 241 234 239 235 226 236 230 242 229 223
164 158 155 149 148 153 138 122 86 360 345 347 353 346 346 339 330 325 312 286 273 275 232 232 237 250 222 262 304 255 266 267 276 266 236 217 224 224 227 216 222 218 223 242 243 220 222
163 159 155 158 155 143 176 134 54 9 344 350 347 346 345 333 326 321 309 322 5 250 334 285 280 273 285 297 293 280 275 276 265 257 222 210 217 211 214 217 229 250 259 295 263 258 226
167 170 166 164 153 159 144 103 68 0 351 346 347 347 337 325 323 307 300 18 23 300 296 276 266 258 262 268 273 269 251 258 242 242 230 232 222 221 222 218 228 235 281 259 252 243 257
168 170 164 157 165 156 152 119 51 9 348 347 348 340 330 318 317 295 328 13 347 332 283 295 270 307 346 301 273 294 270 232 239 232 238 233 217 223 228 224 224 203 215 234 262 280 304
164 164 163 159 164 152 139 104 59 3 347 349 341 334 326 316 275 334 1 348 344 335 282 286 166 140 260 300 252 317 260 222 230 241 249 225 227 204 224 220 220 215 212 235 250 242 241
165 167 159 163 165 154 139 98 15 355 348 344 335 327 321 316 307 337 339 334 319 68 294 351 57 66 314 294 298 283 298 216 229 220 236 236 219 213 219 215 216 225 226 213 228 241 248
169 183 174 166 155 155 140 123 8 354 343 334 328 325 323 299 258 0 335 309 262 237 287 339 354 333 323 314 312 303 273 207 222 245 234 241 196 225 225 200 222 238 240 237 224 241 244
176 174 165 164 159 162 166 148 20 346 329 327 323 317 306 290 343 333 312 277 268 279 342 332 335 322 312 334 321 275 218 188 208 215 230 222 268 198 209 180 190 218 208 198 222 217 231
163 171 166 164 163 187 170 152 18 331 326 324 312 308 160 7 340 325 285 272 301 343 333 331 323 313 318 336 312 338 216 183 214 209 192 174 186 165 198 210 189 214 191 204 197 202 197
176 176 171 169 165 164 160 132 347 330 331 327 298 181 237 28 344 311 284 337 345 331 329 326 321 316 319 325 311 305 244 194 200 227 182 179 111 148 207 185 194 206 222 153 266 227 166
178 179 171 170 166 177 172 162 339 326 331 328 299 246 74 345 340 284 294 327 348 343 327 328 326 318 318 316 323 331 174 192 193 251 115 203 120 191 190 186 204 208 213 208 243 235 224
173 175 170 172 174 161 153 139 341 329 326 306 257 245 73 344 275 288 318 349 334 332 326 328 294 292 306 306 312 318 305 148 264 209 221 279 152 174 199 209 201 195 212 229 188 280 290
177 174 156 178 174 173 169 157 296 335 314 277 283 263 68 308 254 276 325 331 325 345 333 310 316 316 300 301 296 294 358 6 323 281 202 248 284 185 202 208 236 197 175 200 212 188 295
180 178 165 186 183 171 166 181 274 340 329 307 315 6 130 269 324 338 346 327 342 339 358 328 306 289 296 305 316 356 337 0 8 12 11 9 241 180 157 220 161 230 181 181 90 138 197
178 183 174 193 181 172 178 187 210 341 312 285 358 269 158 314 156 322 350 355 354 345 344 302 284 306 315 321 346 328 338 16 16 15 23 326 243 195 212 190 179 162 187 154 195 248 189
183 189 187 184 184 178 175 181 161 351 303 278 33 240 36 273 241 323 321 312 341 4 328 355 329 354 342 0 341 337 352 357 9 15 19 8 83 39 349 133 151 141 146 166 149 10 311
192 189 183 181 179 173 177 178 182 160 273 264 144 279 191 266 286 290 155 307 326 345 351 352 344 340 334 7 348 319 333 360 12 333 32 338 43 115 75 95 104 97 87 100 67 51 330
188 178 183 173 172 170 178 193 186 213 247 193 300 94 296 288 288 276 34 313 317 328 321 339 333 338 334 346 323 304 300 299 282 307 345 331 346 22 97 104 127 82 26 58 92 51 8
181 178 179 169 186 187 197 197 193 209 223 309 212 282 257 280 262 354 326 307 305 317 306 318 337 344 328 318 300 226 255 270 28 44 17 334 353 321 109 213 120 78 33 13 86 53 22
172 180 189 187 192 187 204 214 208 212 234 260 126 263 279 281 314 276 337 328 302 286 295 318 341 337 322 314 311 247 186 204 99 54 31 9 314 35 352 66 117 113 33 15 341 65 26
186 184 187 189 190 199 174 166 202 206 222 226 195 242 285 293 52 1 312 288 336 346 314 339 340 328 330 307 299 308 31 341 26 116 62 30 341 323 261 153 169 34 357 351 310 104 8
182 191 191 185 190 189 190 205 196 200 203 218 154 180 260 271 288 334 356 331 319 331 305 325 345 335 338 330 315 352 14 333 359 11 6 12 24 13 45 21 100 358 317 312 257 32 9
187 198 196 196 191 180 184 221 211 203 196 224 109 191 217 264 289 305 302 294 321 308 323 355 301 28 348 347 357 14 331 1 301 31 2 6 328 35 319 331 94 353 16 32 333 22 29
192 196 193 193 183 189 182 213 198 206 204 221 234 176 238 259 309 311 290 283 278 287 306 304 325 319 8 325 33 326 313 343 312 305 31 54 13 7 19 57 51 32 51 40 23 49 28